Regional Weather Roundup
Issued by NWS

Home | Current Version | Previous Version | Text Only | Print | Product List | Glossary Off
Versions: 1 2 3 4 5 6 7 8 9 10 11 12 13 14 15 16 17 18 19 20 21 22 23 24 25 26 27 28 29 30 31 32 33 34 35 36 37 38 39 40 41 42

000
ASUS45 KBOU 221610
RWRCO

WEATHER ROUNDUP FOR COLORADO
NATIONAL WEATHER SERVICE PUEBLO CO
900 AM MST THU FEB 22 2018

NOTE: "FAIR" INDICATES FEW OR NO CLOUDS BELOW 12000 FEET WITH NO
SIGNIFICANT WEATHER AND/OR OBSTRUCTIONS TO VISIBILITY.

COZ001>005-013-030-031-221700-
...NORTHWEST COLORADO...

CITY           SKY/WX    TMP DP  RH WIND       PRES   REMARKS
CRAIG          LGT SNOW  16  10  77 CALM      29.98S
HAYDEN         SUNNY     14   8  77 SE7       29.96S WCI   4
MEEKER         LGT SNOW  20  15  81 CALM      29.95F
RABBIT EARS PA NOT AVBL
STEAMBOAT SPGS FAIR      10   6  86 CALM      29.94S
WALDEN         FAIR       9   5  85 CALM      29.90F
$$

COZ006>008-011-221700-
...WEST CENTRAL VALLEYS...

CITY           SKY/WX    TMP DP  RH WIND       PRES   REMARKS
GRAND JUNCTION LGT SNOW  29  28  96 CALM      30.00S FOG
MONTROSE       LGT SNOW  25  24  96 CALM      30.00S FOG
EAGLE          FLURRIES  22  16  78 CALM      29.97F
RIFLE          LGT SNOW  25  23  92 CALM      29.99S FOG
DELTA          NOT AVBL
NUCLA          LGT SNOW  27  25  93 CALM      30.03R
$$

COZ017>023-064>068-221700-
...SOUTHWEST COLORADO...

CITY           SKY/WX    TMP DP  RH WIND       PRES   REMARKS
DURANGO        PTSUNNY   27  25  92 SW16G23   29.99S WCI  15
CORTEZ         CLOUDY    29  27  92 S7        30.02R WCI  22
PAGOSA SPRINGS LGT SNOW  24  22  93 SW10      29.97R WCI  14
TELLURIDE      LGT SNOW  19  15  84 CALM      29.91S
WOLF CREEK PAS CLOUDY     7   5  92 MISG      29.88R
$$

COZ009-010-012-014-032>034-037-058>063-221700-
...CENTRAL COLORADO...

CITY           SKY/WX    TMP DP  RH WIND       PRES   REMARKS
ASPEN          PTSUNNY   18  15  88 CALM      29.88F
BUENA VISTA    CLOUDY    20  16  83 CALM      29.89S
COPPER MTN     LGT SNOW  14   9  79 S9        29.80F WCI   2
BERTHOUD PASS  CLOUDY     5  -6  61 W14G24    29.78F WCI -12
COTTONWOOD PAS LGT SNOW  23  18  80 W10G18    29.85S WCI  12
GUNNISON       LGT SNOW  21  17  84 CALM      29.92S FOG
KREMMLING      MOSUNNY   16   9  73 CALM      29.96S
LEADVILLE      CLOUDY    15  11  83 CALM      29.82S
MONARCH PASS   LGT SNOW   9   5  85 W17G23    29.91F VSB 3/4 WCI -10
SALIDA         CLOUDY    21  17  86 CALM      29.98S
SUNLIGHT       LGT SNOW  10   9  92 SW8       29.89S WCI  -1
WILKERSON PASS CLOUDY    18  14  86 SW7       29.84F FOG     WCI   8
$$

COZ069>075-221700-
...SAN LUIS VALLEY/SANGRE DE CRISTO MOUNTAINS...

CITY           SKY/WX    TMP DP  RH WIND       PRES   REMARKS
ALAMOSA        CLOUDY    28  21  75 S20       29.91S WCI  15
DEL NORTE      FAIR      27  21  77 W10       29.89S WCI  17
LA VETA PASS   LGT SNOW  18  14  86 S17G41    29.98S VSB 1   WCI   2
SAGUACHE       NOT AVBL
$$

COZ035-036-038>040-221700-
...NORTHERN COLORADO FRONT RANGE...

CITY           SKY/WX    TMP DP  RH WIND       PRES   REMARKS
DENVER INTL AP PTSUNNY   16  11  80 CALM      29.98S
DMNS CITY PARK NOT AVBL
AURORA         PTSUNNY   16  12  84 CALM      29.97S
FRONT RANGE AP PTSUNNY   19  16  86 W5        29.97F WCI  13
ERIE MUNI ARPT CLOUDY    16  12  85 CALM      30.06S
BOULDER MUN AP CLOUDY    19  14  79 N3        29.99F
CENTENNIAL     PTSUNNY   18  12  77 CALM      29.96R
BROOMFIELD     PTSUNNY   18  12  79 CALM      29.98S
LOVELAND       PTSUNNY   14  10  84 N8        30.02S WCI   3
LONGMONT       CLOUDY    19  14  79 CALM      30.02F
$$

COZ041-046-047-076>085-087-088-221700-
...PIKES PEAK/PALMER DIVIDE AND SOUTHERN FOOTHILLS...

CITY           SKY/WX    TMP DP  RH WIND       PRES   REMARKS
COLO. SPRINGS  LGT SNOW  15  12  88 S3        29.94F FOG
A. F. ACADEMY  FLURRIES  14  12  92 NW3       29.91F
SCHRIEVER AFB  NOT AVBL
CHEYENNE MTN   NOT AVBL
ELLICOTT         N/A    N/A N/A N/A CALM      29.93F
FALCON         LGT SNOW  15  14  93 SW6       29.92F VSB 1   WCI   7
FORT CARSON    CLOUDY    17  13  84 SE5       29.94F WCI  10
LIMON          MOSUNNY   16   8  71 S10       30.01F WCI   4
MONUMENT HILL  CLOUDY    19  12  73 CALM      29.91S
CANON CITY     LGT SNOW  21  16  79 MISG      29.99F
WALSENBURG     FAIR      23  16  74 S3        29.94F
TRINIDAD       MOSUNNY   20  16  84 E9        29.96F WCI   9
$$

COZ042>045-048>051-090-091-221700-
...NORTHEAST COLORADO...

CITY           SKY/WX    TMP DP  RH WIND       PRES   REMARKS
GREELEY ARPT   PTSUNNY   11   8  88 NW8       30.05S WCI  -1
AKRON          CLOUDY    17   7  64 S14       30.04F WCI   3
BURLINGTON     PTSUNNY   18   9  68 SE10      30.09F WCI   6
WRAY           CLOUDY    21  10  63 S12       30.15S WCI   9
YUMA           NOT AVBL
STERLING       CLOUDY    21  10  63 S13       30.08F WCI   9
HOLYOKE        FAIR      25  10  54 S13       30.13F WCI  13
FORT MORGAN    CLOUDY    20  13  74 SE9       30.05F WCI   9
$$

COZ086-089-092>099-221700-
...SOUTHEAST COLORADO...

CITY           SKY/WX    TMP DP  RH WIND       PRES   REMARKS
PUEBLO         CLOUDY    21  15  78 SE3       30.02F HAZE
LA JUNTA       MOSUNNY   20  13  74 S6        30.06F WCI  12
LAMAR          MOSUNNY   22   9  57 E8        30.07F WCI  12
SPRINGFIELD      N/A     27  11  51 S16       30.04F WCI  15
$$





USA.gov is the U.S. government's official web portal to all federal, state and local government web resources and services.